Regional Weather Roundup
Issued by NWS

Home | Current Version | Previous Version | Graphics & Text | Print | Product List | Glossary On
Versions: 1 2 3 4 5 6 7 8 9 10 11 12 13 14 15 16 17 18 19 20 21 22 23 24 25 26 27 28 29 30 31 32 33 34 35 36 37 38 39 40 41 42 43 44 45 46 47 48 49 50
000
ASUS45 KSLC 190910
RWRUT

UTAH REGIONAL WEATHER ROUNDUP
NATIONAL WEATHER SERVICE SALT LAKE CITY UT
300 AM MDT FRI SEP 19 2014

UTZ001>011-023>025-191000-

NORTHERN UTAH

CITY           SKY/WX    TMP DP  RH WIND       PRES   REMARKS
HILL AFB       LGT RAIN  66  52  59 E21       29.97S
LOGAN          PTCLDY    59  58  96 N8        29.99R
OGDEN          CLOUDY    68  52  56 SE3       29.96R
PROVO AIRPORT  MOCLDY    66  54  63 CALM      29.97R
SALT LAKE CITY MOCLDY    66  54  65 E5        29.94R
VERNAL         PTCLDY    59  45  59 N5        29.98R
WENDOVER       PTCLDY    64  52  63 CALM      29.97S
HEBER CITY     PTCLDY    61  46  59 E3        30.04R
WEST JORDAN    MOCLDY    64  52  63 CALM      29.97R

$$

UTZ012>022-026-027-191000-

SOUTHERN UTAH

CITY           SKY/WX    TMP DP  RH WIND       PRES   REMARKS
BRYCE CANYON   PTCLDY    47  43  86 W6        30.18R
CEDAR CITY     CLOUDY    62  48  60 SE7       30.03R
MILFORD        CLOUDY    68  50  52 SW12      29.98R
MOAB/CYNLANDS  CLEAR     62  36  37 W3        29.91R
PRICE          CLEAR     61  37  41 NE8       30.01S
ST GEORGE      MOSUNNY   77  48  36 E6        29.86R
KANAB            N/A     64  50  59 N3        30.03R

$$

REGIONAL REPORTS     COLORADO/ARIZONA

CITY           SKY/WX    TMP DP  RH WIND       PRES   REMARKS
CRAIG, CO      PTCLDY    45  40  82 CALM      30.07S
GRAND JUNCTION CLEAR     66  41  40 E12       29.95S
RIFLE          PTCLDY    54  42  64 CALM      30.03S
MONTROSE       CLEAR     62  43  49 SE9       30.05S
CORTEZ         CLEAR     49  43  80 NE3       30.07R
PAGE, AZ       MOCLDY    77  51  40 SW3       29.92R
GRAND CANYON   CLEAR     50  48  93 CALM      30.14S
KINGMAN        CLEAR     76  51  41 S10       29.89S
FLAGSTAFF        N/A     56  54  93 CALM      30.16F

$$

REGIONAL REPORTS    NEVADA/IDAHO/WYOMING

CITY           SKY/WX    TMP DP  RH WIND       PRES   REMARKS
LAS VEGAS, NV  CLEAR     81  45  28 S14       29.74S
ELY            MOCLDY    51  41  68 CALM      30.08R
ELKO           PTCLDY    56  50  80 E3        30.03R
POCATELLO, ID  CLEAR     52  52 100 CALM      29.97R
BURLEY         CLEAR     54  44  69 CALM      29.96R HAZE
EVANSTON, WY   CLOUDY    53  48  83 E5        30.16R
ROCK SPRINGS   MOCLDY    58  43  57 N13       30.10R

$$



USA.gov is the U.S. government's official web portal to all federal, state and local government web resources and services.